Time,TemperatureF,DewpointF,PressureIn,WindDirection,WindDirectionDegrees,WindSpeedMPH,WindSpeedGustMPH,Humidity,HourlyPrecipIn,Conditions,Clouds,dailyrainin,SoftwareType,DateUTC
2013-04-13 00:03:00,19.9,18.0,29.74,NNE,22,1.0,4.0,92,0.00,,---,0.00,VWS V14.01,2013-04-13 05:03:00,
2013-04-13 00:08:00,19.9,18.0,29.74,NNE,22,2.0,4.0,92,0.00,,---,0.00,VWS V14.01,2013-04-13 05:08:00,
2013-04-13 00:13:00,19.9,18.0,29.74,NNE,15,0.0,5.0,92,0.00,,---,0.00,VWS V14.01,2013-04-13 05:13:00,
2013-04-13 00:18:00,19.9,18.0,29.74,NNE,15,1.0,5.0,92,0.00,,---,0.00,VWS V14.01,2013-04-13 05:18:00,
2013-04-13 00:23:00,19.9,18.0,29.74,NNE,15,1.0,5.0,92,0.00,,---,0.00,VWS V14.01,2013-04-13 05:23:00,
2013-04-13 00:29:00,19.9,18.0,29.74,NNE,15,0.0,5.0,92,0.00,,---,0.00,VWS V14.01,2013-04-13 05:29:00,
2013-04-13 00:34:00,19.9,18.0,29.74,NNE,15,3.0,3.0,92,0.00,,---,0.00,VWS V14.01,2013-04-13 05:34:00,
2013-04-13 00:39:00,19.9,18.0,29.74,NNE,15,0.0,3.0,92,0.00,,---,0.00,VWS V14.01,2013-04-13 05:39:00,
2013-04-13 00:44:00,19.9,18.0,29.74,NNE,15,1.0,3.0,92,0.00,,---,0.00,VWS V14.01,2013-04-13 05:44:00,
2013-04-13 00:49:00,20.0,18.0,29.74,NNE,15,1.0,3.0,92,0.00,,---,0.00,VWS V14.01,2013-04-13 05:49:00,
2013-04-13 00:54:00,20.0,18.0,29.74,NNE,15,0.0,3.0,92,0.00,,---,0.00,VWS V14.01,2013-04-13 05:54:00,
2013-04-13 00:59:00,20.0,18.0,29.74,NNE,15,0.0,3.0,92,0.00,,---,0.00,VWS V14.01,2013-04-13 05:59:00,
2013-04-13 01:04:00,20.1,18.1,29.74,NNE,15,1.0,1.0,92,0.00,,---,0.00,VWS V14.01,2013-04-13 06:04:00,
2013-04-13 01:09:00,20.1,18.1,29.74,NNE,15,1.0,2.0,92,0.00,,---,0.00,VWS V14.01,2013-04-13 06:09:00,
2013-04-13 01:14:00,20.2,18.2,29.74,NNE,15,2.0,3.0,92,0.00,,---,0.00,VWS V14.01,2013-04-13 06:14:00,
2013-04-13 01:20:00,20.2,18.2,29.74,NNE,15,0.0,3.0,92,0.00,,---,0.00,VWS V14.01,2013-04-13 06:20:00,
2013-04-13 01:25:00,20.1,18.1,29.74,NNE,15,3.0,3.0,92,0.00,,---,0.00,VWS V14.01,2013-04-13 06:25:00,
2013-04-13 01:30:00,20.1,18.1,29.73,NNE,15,2.0,3.0,92,0.00,,---,0.00,VWS V14.01,2013-04-13 06:30:00,
2013-04-13 01:35:00,20.1,18.1,29.73,NNE,15,1.0,2.0,92,0.00,,---,0.00,VWS V14.01,2013-04-13 06:35:00,
2013-04-13 01:40:00,20.0,18.0,29.73,NNE,15,1.0,2.0,92,0.00,,---,0.00,VWS V14.01,2013-04-13 06:40:00,
2013-04-13 01:45:00,20.0,18.0,29.73,NNE,15,0.0,3.0,92,0.00,,---,0.00,VWS V14.01,2013-04-13 06:45:00,
2013-04-13 01:51:00,20.0,18.0,29.73,NNE,15,1.0,3.0,92,0.00,,---,0.00,VWS V14.01,2013-04-13 06:51:00,
2013-04-13 01:56:00,20.0,18.0,29.73,NNE,15,3.0,5.0,92,0.00,,---,0.00,VWS V14.01,2013-04-13 06:56:00,
2013-04-13 02:01:00,20.0,18.0,29.73,NNE,15,3.0,3.0,92,0.00,,---,0.00,VWS V14.01,2013-04-13 07:01:00,
2013-04-13 02:07:00,20.1,18.1,29.73,NNE,15,1.0,3.0,92,0.00,,---,0.00,VWS V14.01,2013-04-13 07:07:00,
2013-04-13 02:12:00,20.1,18.1,29.73,NNE,15,0.0,3.0,92,0.00,,---,0.00,VWS V14.01,2013-04-13 07:12:00,
2013-04-13 02:18:00,20.2,18.2,29.72,NNE,15,1.0,3.0,92,0.00,,---,0.00,VWS V14.01,2013-04-13 07:18:00,
2013-04-13 02:23:00,20.2,18.2,29.72,NNE,15,1.0,3.0,92,0.00,,---,0.00,VWS V14.01,2013-04-13 07:23:00,
2013-04-13 02:28:00,20.3,18.4,29.72,NNE,14,4.0,4.0,92,0.00,,---,0.00,VWS V14.01,2013-04-13 07:28:00,
2013-04-13 02:33:00,20.3,18.4,29.72,NNE,14,1.0,2.0,92,0.00,,---,0.00,VWS V14.01,2013-04-13 07:33:00,
2013-04-13 02:39:00,20.3,18.4,29.72,NNE,14,0.0,2.0,92,0.00,,---,0.00,VWS V14.01,2013-04-13 07:39:00,
2013-04-13 02:44:00,20.4,18.5,29.72,NNE,14,3.0,3.0,92,0.00,,---,0.00,VWS V14.01,2013-04-13 07:44:00,
2013-04-13 02:49:00,20.4,18.5,29.72,NNE,14,0.0,4.0,92,0.00,,---,0.00,VWS V14.01,2013-04-13 07:49:00,
2013-04-13 02:55:00,20.5,18.5,29.72,NNE,14,0.0,4.0,92,0.00,,---,0.00,VWS V14.01,2013-04-13 07:55:00,
2013-04-13 03:00:00,20.5,18.5,29.72,NNE,14,3.0,4.0,92,0.00,,---,0.00,VWS V14.01,2013-04-13 08:00:00,
2013-04-13 03:05:00,20.5,18.5,29.72,NNE,14,2.0,4.0,92,0.00,,---,0.00,VWS V14.01,2013-04-13 08:05:00,
2013-04-13 03:10:00,20.6,18.6,29.72,NNE,14,0.0,4.0,92,0.00,,---,0.00,VWS V14.01,2013-04-13 08:10:00,
2013-04-13 03:15:00,20.6,18.6,29.72,NNE,14,1.0,4.0,92,0.00,,---,0.00,VWS V14.01,2013-04-13 08:15:00,
2013-04-13 03:20:00,20.6,18.6,29.72,NNE,14,2.0,4.0,92,0.00,,---,0.00,VWS V14.01,2013-04-13 08:20:00,
2013-04-13 03:25:00,20.6,18.6,29.72,NNE,14,1.0,4.0,92,0.00,,---,0.00,VWS V14.01,2013-04-13 08:25:00,
2013-04-13 03:30:00,20.6,18.6,29.72,NNE,14,1.0,4.0,92,0.00,,---,0.00,VWS V14.01,2013-04-13 08:30:00,
2013-04-13 03:35:00,20.7,18.8,29.72,NNE,14,0.0,4.0,92,0.00,,---,0.00,VWS V14.01,2013-04-13 08:35:00,
2013-04-13 03:41:00,20.7,18.8,29.72,NNE,14,3.0,5.0,92,0.00,,---,0.00,VWS V14.01,2013-04-13 08:41:00,
2013-04-13 03:46:00,20.6,18.6,29.72,NNE,13,2.0,5.0,92,0.00,,---,0.00,VWS V14.01,2013-04-13 08:46:00,
2013-04-13 03:51:00,20.7,18.8,29.72,NNE,14,2.0,5.0,92,0.00,,---,0.00,VWS V14.01,2013-04-13 08:51:00,
2013-04-13 03:57:00,20.7,18.8,29.72,NNE,14,2.0,5.0,92,0.00,,---,0.00,VWS V14.01,2013-04-13 08:57:00,
2013-04-13 04:02:00,20.7,18.8,29.72,NNE,14,4.0,7.0,92,0.00,,---,0.00,VWS V14.01,2013-04-13 09:02:00,
2013-04-13 04:07:00,20.7,19.0,29.72,North,11,2.0,7.0,93,0.00,,---,0.00,VWS V14.01,2013-04-13 09:07:00,
2013-04-13 04:13:00,20.7,18.8,29.72,NNE,12,2.0,8.0,92,0.00,,---,0.00,VWS V14.01,2013-04-13 09:13:00,
2013-04-13 04:18:00,20.7,18.8,29.72,North,10,1.0,8.0,92,0.00,,---,0.00,VWS V14.01,2013-04-13 09:18:00,
2013-04-13 04:23:00,20.7,18.8,29.72,NNE,15,4.0,9.0,92,0.00,,---,0.00,VWS V14.01,2013-04-13 09:23:00,
2013-04-13 04:29:00,20.7,18.8,29.72,NNE,26,3.0,9.0,92,0.00,,---,0.00,VWS V14.01,2013-04-13 09:29:00,
2013-04-13 04:34:00,20.7,18.8,29.72,North,9,2.0,5.0,92,0.00,,---,0.00,VWS V14.01,2013-04-13 09:34:00,
2013-04-13 04:39:00,20.6,18.6,29.72,North,11,2.0,9.0,92,0.00,,---,0.00,VWS V14.01,2013-04-13 09:39:00,
2013-04-13 04:44:00,20.6,18.6,29.72,NE,38,2.0,9.0,92,0.00,,---,0.00,VWS V14.01,2013-04-13 09:44:00,
2013-04-13 04:50:00,20.5,18.5,29.72,NNE,21,2.0,9.0,92,0.00,,---,0.00,VWS V14.01,2013-04-13 09:50:00,
2013-04-13 04:55:00,20.5,18.5,29.72,North,5,2.0,9.0,92,0.00,,---,0.00,VWS V14.01,2013-04-13 09:55:00,
2013-04-13 05:00:00,20.4,18.5,29.72,North,9,3.0,9.0,92,0.00,,---,0.00,VWS V14.01,2013-04-13 10:00:00,
2013-04-13 05:05:00,20.4,18.5,29.72,NNE,33,2.0,6.0,92,0.00,,---,0.00,VWS V14.01,2013-04-13 10:05:00,
2013-04-13 05:12:00,20.4,18.5,29.72,NNE,16,4.0,9.0,92,0.00,,---,0.00,VWS V14.01,2013-04-13 10:12:00,
2013-04-13 05:17:00,20.4,18.5,29.73,North,9,4.0,9.0,92,0.00,,---,0.00,VWS V14.01,2013-04-13 10:17:00,
2013-04-13 05:22:00,20.3,18.4,29.73,North,5,5.0,9.0,92,0.00,,---,0.00,VWS V14.01,2013-04-13 10:22:00,
2013-04-13 05:27:00,20.3,18.4,29.73,North,9,2.0,9.0,92,0.00,,---,0.00,VWS V14.01,2013-04-13 10:27:00,
2013-04-13 05:32:00,20.3,18.4,29.73,NNE,15,6.0,10.0,92,0.00,,---,0.00,VWS V14.01,2013-04-13 10:32:00,
2013-04-13 05:38:00,20.2,18.2,29.73,NNE,15,2.0,10.0,92,0.00,,---,0.00,VWS V14.01,2013-04-13 10:38:00,
2013-04-13 05:43:00,20.2,18.2,29.73,NNW,348,3.0,10.0,92,0.00,,---,0.00,VWS V14.01,2013-04-13 10:43:00,
2013-04-13 05:51:00,20.1,18.1,29.73,NNE,19,6.0,10.0,92,0.00,,---,0.00,VWS V14.01,2013-04-13 10:51:00,
2013-04-13 05:56:00,20.0,18.0,29.73,NNE,12,1.0,10.0,92,0.00,,---,0.00,VWS V14.01,2013-04-13 10:56:00,
2013-04-13 06:01:00,19.9,18.0,29.73,NNE,30,1.0,3.0,92,0.00,,---,0.00,VWS V14.01,2013-04-13 11:01:00,
2013-04-13 06:07:00,19.9,18.0,29.73,NNE,24,1.0,6.0,92,0.00,,---,0.00,VWS V14.01,2013-04-13 11:07:00,
2013-04-13 06:12:00,19.8,17.9,29.73,NNE,12,6.0,10.0,92,0.00,,---,0.00,VWS V14.01,2013-04-13 11:12:00,
2013-04-13 06:17:00,19.7,17.8,29.73,NNE,17,4.0,10.0,92,0.00,,---,0.00,VWS V14.01,2013-04-13 11:17:00,
2013-04-13 06:22:00,19.7,17.5,29.73,NNE,24,3.0,11.0,91,0.00,,---,0.00,VWS V14.01,2013-04-13 11:22:00,
2013-04-13 06:28:00,19.6,17.4,29.73,North,10,4.0,11.0,91,0.00,,---,0.00,VWS V14.01,2013-04-13 11:28:00,
2013-04-13 06:33:00,19.5,17.6,29.73,North,9,3.0,8.0,92,0.00,,---,0.00,VWS V14.01,2013-04-13 11:33:00,
2013-04-13 06:38:00,19.4,17.5,29.73,North,9,7.0,10.0,92,0.00,,---,0.00,VWS V14.01,2013-04-13 11:38:00,
2013-04-13 06:43:00,19.4,17.2,29.73,NNE,19,2.0,10.0,91,0.00,,---,0.00,VWS V14.01,2013-04-13 11:43:00,
2013-04-13 06:49:00,19.3,17.1,29.73,NNE,14,3.0,10.0,91,0.00,,---,0.00,VWS V14.01,2013-04-13 11:49:00,
2013-04-13 06:55:00,19.3,17.1,29.73,NNE,15,3.0,10.0,91,0.00,,---,0.00,VWS V14.01,2013-04-13 11:55:00,
2013-04-13 07:00:00,19.2,17.0,29.73,NNE,15,3.0,10.0,91,0.00,,---,0.00,VWS V14.01,2013-04-13 12:00:00,
2013-04-13 07:05:00,19.2,17.0,29.73,NNE,18,4.0,4.0,91,0.00,,---,0.00,VWS V14.01,2013-04-13 12:05:00,
2013-04-13 07:10:00,19.2,17.0,29.73,North,355,4.0,10.0,91,0.00,,---,0.00,VWS V14.01,2013-04-13 12:10:00,
2013-04-13 07:17:00,19.1,16.9,29.74,North,5,5.0,10.0,91,0.00,,---,0.00,VWS V14.01,2013-04-13 12:17:00,
2013-04-13 07:22:00,19.1,16.9,29.74,North,5,4.0,10.0,91,0.00,,---,0.00,VWS V14.01,2013-04-13 12:22:00,
2013-04-13 07:27:00,19.1,16.9,29.74,NNE,16,1.0,10.0,91,0.00,,---,0.00,VWS V14.01,2013-04-13 12:27:00,
2013-04-13 07:32:00,19.1,16.9,29.74,NNE,13,6.0,6.0,91,0.00,,---,0.00,VWS V14.01,2013-04-13 12:32:00,
2013-04-13 07:37:00,19.1,16.9,29.74,NNE,15,6.0,10.0,91,0.00,,---,0.00,VWS V14.01,2013-04-13 12:37:00,
2013-04-13 07:43:00,19.1,16.9,29.74,North,11,4.0,10.0,91,0.00,,---,0.00,VWS V14.01,2013-04-13 12:43:00,
2013-04-13 07:48:00,19.2,17.0,29.75,North,5,9.0,10.0,91,0.00,,---,0.00,VWS V14.01,2013-04-13 12:48:00,
2013-04-13 07:53:00,19.2,17.0,29.75,NNE,22,3.0,10.0,91,0.00,,---,0.00,VWS V14.01,2013-04-13 12:53:00,
2013-04-13 07:58:00,19.3,17.1,29.75,NNE,17,3.0,10.0,91,0.00,,---,0.00,VWS V14.01,2013-04-13 12:58:00,
2013-04-13 08:03:00,19.4,17.2,29.75,North,5,6.0,7.0,91,0.00,,---,0.00,VWS V14.01,2013-04-13 13:03:00,
2013-04-13 08:08:00,19.4,17.2,29.75,North,5,2.0,7.0,91,0.00,,---,0.00,VWS V14.01,2013-04-13 13:08:00,
2013-04-13 08:14:00,19.7,17.5,29.75,North,5,4.0,7.0,91,0.00,,---,0.00,VWS V14.01,2013-04-13 13:14:00,
2013-04-13 08:19:00,19.7,17.5,29.74,North,355,3.0,7.0,91,0.00,,---,0.00,VWS V14.01,2013-04-13 13:19:00,
2013-04-13 08:24:00,19.8,17.6,29.74,NNE,13,7.0,7.0,91,0.00,,---,0.00,VWS V14.01,2013-04-13 13:24:00,
2013-04-13 08:30:00,19.9,17.7,29.74,North,349,2.0,7.0,91,0.00,,---,0.00,VWS V14.01,2013-04-13 13:30:00,
2013-04-13 08:35:00,20.0,17.8,29.74,North,5,4.0,5.0,91,0.00,,---,0.00,VWS V14.01,2013-04-13 13:35:00,
2013-04-13 08:41:00,20.0,17.8,29.74,NNE,12,6.0,10.0,91,0.00,,---,0.00,VWS V14.01,2013-04-13 13:41:00,
2013-04-13 08:46:00,20.0,17.8,29.75,NE,34,3.0,10.0,91,0.00,,---,0.00,VWS V14.01,2013-04-13 13:46:00,
2013-04-13 08:53:00,20.3,18.1,29.75,North,5,3.0,10.0,91,0.00,,---,0.00,VWS V14.01,2013-04-13 13:53:00,
2013-04-13 08:58:00,20.5,18.3,29.75,NW,322,3.0,10.0,91,0.00,,---,0.00,VWS V14.01,2013-04-13 13:58:00,
2013-04-13 09:03:00,20.6,18.4,29.75,North,5,5.0,6.0,91,0.00,,---,0.00,VWS V14.01,2013-04-13 14:03:00,
2013-04-13 09:08:00,20.7,18.5,29.75,North,5,4.0,9.0,91,0.00,,---,0.00,VWS V14.01,2013-04-13 14:08:00,
2013-04-13 09:13:00,20.7,18.2,29.75,North,11,5.0,9.0,90,0.00,,---,0.00,VWS V14.01,2013-04-13 14:13:00,
2013-04-13 09:19:00,20.7,18.2,29.75,NNE,17,4.0,9.0,90,0.00,,---,0.00,VWS V14.01,2013-04-13 14:19:00,
2013-04-13 09:24:00,20.9,18.7,29.75,North,9,3.0,9.0,91,0.00,,---,0.00,VWS V14.01,2013-04-13 14:24:00,
2013-04-13 09:29:00,20.9,18.4,29.75,NE,35,2.0,11.0,90,0.00,,---,0.00,VWS V14.01,2013-04-13 14:29:00,
2013-04-13 09:34:00,20.9,18.2,29.75,North,360,2.0,9.0,89,0.00,,---,0.00,VWS V14.01,2013-04-13 14:34:00,
2013-04-13 09:39:00,21.0,18.5,29.75,NNE,23,1.0,10.0,90,0.00,,---,0.00,VWS V14.01,2013-04-13 14:39:00,
2013-04-13 09:44:00,21.0,18.5,29.75,NNE,13,3.0,10.0,90,0.00,,---,0.00,VWS V14.01,2013-04-13 14:44:00,
2013-04-13 09:49:00,21.2,18.7,29.75,North,9,3.0,10.0,90,0.00,,---,0.00,VWS V14.01,2013-04-13 14:49:00,
2013-04-13 09:55:00,21.5,19.0,29.75,NNE,19,5.0,10.0,90,0.00,,---,0.00,VWS V14.01,2013-04-13 14:55:00,
2013-04-13 10:00:00,21.6,19.1,29.75,NNE,17,4.0,10.0,90,0.00,,---,0.00,VWS V14.01,2013-04-13 15:00:00,
2013-04-13 10:05:00,21.8,19.3,29.75,North,5,4.0,7.0,90,0.00,,---,0.00,VWS V14.01,2013-04-13 15:05:00,
2013-04-13 10:10:00,22.0,19.5,29.75,NNW,341,2.0,7.0,90,0.00,,---,0.00,VWS V14.01,2013-04-13 15:10:00,
2013-04-13 10:15:00,22.2,19.7,29.75,NW,311,4.0,7.0,90,0.00,,---,0.00,VWS V14.01,2013-04-13 15:15:00,
2013-04-13 10:20:00,22.1,19.6,29.75,NW,317,4.0,10.0,90,0.00,,---,0.00,VWS V14.01,2013-04-13 15:20:00,
2013-04-13 10:25:00,22.2,19.7,29.75,NW,306,5.0,10.0,90,0.00,,---,0.00,VWS V14.01,2013-04-13 15:25:00,
2013-04-13 10:30:00,22.0,19.3,29.75,NNE,13,2.0,11.0,89,0.00,,---,0.00,VWS V14.01,2013-04-13 15:30:00,
2013-04-13 10:36:00,22.1,19.6,29.75,North,5,3.0,9.0,90,0.00,,---,0.00,VWS V14.01,2013-04-13 15:36:00,
2013-04-13 10:41:00,22.5,20.0,29.75,North,11,5.0,9.0,90,0.00,,---,0.00,VWS V14.01,2013-04-13 15:41:00,
2013-04-13 10:46:00,22.9,20.4,29.75,North,11,6.0,9.0,90,0.00,,---,0.00,VWS V14.01,2013-04-13 15:46:00,
2013-04-13 10:53:00,23.3,20.5,29.75,North,9,6.0,11.0,89,0.00,,---,0.00,VWS V14.01,2013-04-13 15:53:00,
2013-04-13 10:58:00,23.4,20.6,29.75,North,351,4.0,11.0,89,0.00,,---,0.00,VWS V14.01,2013-04-13 15:58:00,
2013-04-13 11:04:00,23.4,20.6,29.75,North,9,9.0,10.0,89,0.00,,---,0.00,VWS V14.01,2013-04-13 16:04:00,
2013-04-13 11:09:00,23.4,20.6,29.75,NNE,22,2.0,10.0,89,0.00,,---,0.00,VWS V14.01,2013-04-13 16:09:00,
2013-04-13 11:14:00,23.5,20.5,29.75,NNE,19,2.0,10.0,88,0.00,,---,0.00,VWS V14.01,2013-04-13 16:14:00,
2013-04-13 11:19:00,24.0,21.2,29.75,NNW,331,0.0,10.0,89,0.00,,---,0.00,VWS V14.01,2013-04-13 16:19:00,
2013-04-13 11:25:00,24.7,21.7,29.75,NNW,340,6.0,10.0,88,0.00,,---,0.00,VWS V14.01,2013-04-13 16:25:00,
2013-04-13 11:30:00,24.6,21.3,29.75,NNW,347,5.0,12.0,87,0.00,,---,0.00,VWS V14.01,2013-04-13 16:30:00,
2013-04-13 11:35:00,24.3,21.3,29.75,NNW,333,6.0,11.0,88,0.00,,---,0.00,VWS V14.01,2013-04-13 16:35:00,
2013-04-13 11:40:00,24.4,21.4,29.75,West,278,6.0,12.0,88,0.00,,---,0.00,VWS V14.01,2013-04-13 16:40:00,
2013-04-13 11:45:00,25.0,22.0,29.75,NNW,333,7.0,12.0,88,0.00,,---,0.00,VWS V14.01,2013-04-13 16:45:00,
2013-04-13 11:50:00,24.9,21.9,29.75,NW,325,4.0,12.0,88,0.00,,---,0.00,VWS V14.01,2013-04-13 16:50:00,
2013-04-13 11:55:00,25.2,22.1,29.75,West,269,5.0,12.0,88,0.00,,---,0.00,VWS V14.01,2013-04-13 16:55:00,
2013-04-13 12:01:00,25.2,21.9,29.75,NNW,347,7.0,12.0,87,0.00,,---,0.00,VWS V14.01,2013-04-13 17:01:00,
2013-04-13 12:06:00,25.2,21.9,29.75,NNE,19,8.0,10.0,87,0.00,,---,0.00,VWS V14.01,2013-04-13 17:06:00,
2013-04-13 12:12:00,25.4,22.4,29.75,NNW,348,4.0,10.0,88,0.00,,---,0.00,VWS V14.01,2013-04-13 17:12:00,
2013-04-13 12:18:00,25.3,21.7,29.75,NW,315,6.0,13.0,86,0.00,,---,0.00,VWS V14.01,2013-04-13 17:18:00,
2013-04-13 12:24:00,25.6,22.3,29.75,North,360,4.0,13.0,87,0.00,,---,0.00,VWS V14.01,2013-04-13 17:24:00,
2013-04-13 12:29:00,25.9,22.0,29.75,NNE,18,4.0,13.0,85,0.00,,---,0.00,VWS V14.01,2013-04-13 17:29:00,
2013-04-13 12:34:00,25.9,22.3,29.75,NNW,330,4.0,11.0,86,0.00,,---,0.00,VWS V14.01,2013-04-13 17:34:00,
2013-04-13 12:39:00,25.5,21.6,29.75,NNW,334,2.0,11.0,85,0.00,,---,0.00,VWS V14.01,2013-04-13 17:39:00,
2013-04-13 12:45:00,25.5,21.6,29.76,NNE,12,3.0,11.0,85,0.00,,---,0.00,VWS V14.01,2013-04-13 17:45:00,
2013-04-13 12:52:00,25.7,21.8,29.76,NNW,333,4.0,11.0,85,0.00,,---,0.00,VWS V14.01,2013-04-13 17:52:00,
2013-04-13 12:58:00,26.0,22.1,29.76,NNE,22,0.0,11.0,85,0.00,,---,0.00,VWS V14.01,2013-04-13 17:58:00,
2013-04-13 13:03:00,26.5,22.9,29.76,North,5,2.0,6.0,86,0.00,,---,0.00,VWS V14.01,2013-04-13 18:03:00,
2013-04-13 13:08:00,26.3,22.4,29.76,North,5,5.0,11.0,85,0.00,,---,0.00,VWS V14.01,2013-04-13 18:08:00,
2013-04-13 13:15:00,26.5,22.6,29.76,NNE,19,2.0,11.0,85,0.00,,---,0.00,VWS V14.01,2013-04-13 18:15:00,
2013-04-13 13:20:00,26.5,22.3,29.76,NNW,346,5.0,11.0,84,0.00,,---,0.00,VWS V14.01,2013-04-13 18:20:00,
2013-04-13 13:25:00,26.6,22.4,29.76,NNW,340,3.0,11.0,84,0.00,,---,0.00,VWS V14.01,2013-04-13 18:25:00,
2013-04-13 13:27:00,26.8,22.6,29.76,NNE,17,2.0,11.0,84,0.00,,---,0.00,VWS V14.01,2013-04-13 18:27:00,
2013-04-13 13:28:00,26.9,22.7,29.76,NNE,17,1.0,11.0,84,0.00,,---,0.00,VWS V14.01,2013-04-13 18:28:00,
2013-04-13 13:29:00,27.0,23.1,29.76,NNE,20,4.0,11.0,85,0.00,,---,0.00,VWS V14.01,2013-04-13 18:29:00,
2013-04-13 13:34:00,27.2,22.7,29.76,ENE,73,3.0,9.0,83,0.00,,---,0.00,VWS V14.01,2013-04-13 18:34:00,
2013-04-13 13:39:00,27.3,22.8,29.76,NNW,348,2.0,9.0,83,0.00,,---,0.00,VWS V14.01,2013-04-13 18:39:00,
2013-04-13 13:44:00,27.5,22.7,29.76,NNW,346,3.0,9.0,82,0.00,,---,0.00,VWS V14.01,2013-04-13 18:44:00,
2013-04-13 13:50:00,27.5,22.7,29.76,NNE,23,4.0,10.0,82,0.00,,---,0.00,VWS V14.01,2013-04-13 18:50:00,
2013-04-13 13:55:00,27.6,23.4,29.76,NNE,15,1.0,11.0,84,0.00,,---,0.00,VWS V14.01,2013-04-13 18:55:00,
2013-04-13 14:00:00,27.6,22.8,29.76,NNE,14,1.0,11.0,82,0.00,,---,0.00,VWS V14.01,2013-04-13 19:00:00,
2013-04-13 14:05:00,27.7,23.2,29.76,North,360,3.0,7.0,83,0.00,,---,0.00,VWS V14.01,2013-04-13 19:05:00,
2013-04-13 14:10:00,27.6,22.8,29.76,NNE,16,1.0,7.0,82,0.00,,---,0.00,VWS V14.01,2013-04-13 19:10:00,
2013-04-13 14:15:00,28.5,23.7,29.76,NNW,346,5.0,7.0,82,0.00,,---,0.00,VWS V14.01,2013-04-13 19:15:00,
2013-04-13 14:20:00,28.8,23.4,29.76,NW,324,3.0,9.0,80,0.00,,---,0.00,VWS V14.01,2013-04-13 19:20:00,
2013-04-13 14:25:00,29.1,23.7,29.76,NNE,17,4.0,9.0,80,0.00,,---,0.00,VWS V14.01,2013-04-13 19:25:00,
2013-04-13 14:30:00,28.7,23.3,29.76,North,349,4.0,10.0,80,0.00,,---,0.00,VWS V14.01,2013-04-13 19:30:00,
2013-04-13 14:36:00,27.8,23.3,29.76,North,360,4.0,10.0,83,0.00,,---,0.00,VWS V14.01,2013-04-13 19:36:00,
2013-04-13 14:41:00,27.4,22.9,29.76,North,5,5.0,10.0,83,0.00,,---,0.00,VWS V14.01,2013-04-13 19:41:00,
2013-04-13 14:46:00,27.6,23.7,29.77,North,9,0.0,10.0,85,0.00,,---,0.00,VWS V14.01,2013-04-13 19:46:00,
2013-04-13 14:51:00,27.8,23.3,29.77,NNE,19,5.0,10.0,83,0.00,,---,0.00,VWS V14.01,2013-04-13 19:51:00,
2013-04-13 14:56:00,28.2,24.0,29.77,North,11,3.0,10.0,84,0.00,,---,0.00,VWS V14.01,2013-04-13 19:56:00,
2013-04-13 15:01:00,29.0,24.8,29.76,NNE,15,3.0,5.0,84,0.00,,---,0.00,VWS V14.01,2013-04-13 20:01:00,
2013-04-13 15:06:00,29.6,25.1,29.76,WNW,286,4.0,6.0,83,0.00,,---,0.00,VWS V14.01,2013-04-13 20:06:00,
2013-04-13 15:11:00,30.2,25.4,29.76,WNW,296,2.0,6.0,82,0.00,,---,0.00,VWS V14.01,2013-04-13 20:11:00,
2013-04-13 15:17:00,30.4,25.3,29.76,WNW,301,1.0,6.0,81,0.00,,---,0.00,VWS V14.01,2013-04-13 20:17:00,
2013-04-13 15:22:00,29.7,24.3,29.76,North,349,5.0,10.0,80,0.00,,---,0.00,VWS V14.01,2013-04-13 20:22:00,
2013-04-13 15:27:00,28.9,23.8,29.76,NNE,16,3.0,11.0,81,0.00,,---,0.00,VWS V14.01,2013-04-13 20:27:00,
2013-04-13 15:32:00,28.7,23.6,29.77,North,355,0.0,2.0,81,0.00,,---,0.00,VWS V14.01,2013-04-13 20:32:00,
2013-04-13 15:37:00,28.9,24.1,29.77,NNW,346,1.0,6.0,82,0.00,,---,0.00,VWS V14.01,2013-04-13 20:37:00,
2013-04-13 15:43:00,29.3,23.9,29.77,NNE,12,4.0,8.0,80,0.00,,---,0.00,VWS V14.01,2013-04-13 20:43:00,
2013-04-13 15:48:00,29.1,24.3,29.77,North,360,7.0,14.0,82,0.00,,---,0.00,VWS V14.01,2013-04-13 20:48:00,
2013-04-13 15:53:00,28.9,24.7,29.77,NW,315,5.0,14.0,84,0.00,,---,0.00,VWS V14.01,2013-04-13 20:53:00,
2013-04-13 15:58:00,28.3,24.1,29.77,NNE,23,4.0,14.0,84,0.00,,---,0.00,VWS V14.01,2013-04-13 20:58:00,
2013-04-13 16:03:00,28.2,24.0,29.78,NNE,14,5.0,7.0,84,0.00,,---,0.00,VWS V14.01,2013-04-13 21:03:00,
2013-04-13 16:09:00,28.4,23.9,29.78,NNE,13,3.0,10.0,83,0.00,,---,0.00,VWS V14.01,2013-04-13 21:09:00,
2013-04-13 16:14:00,28.7,23.6,29.78,NNE,21,3.0,10.0,81,0.00,,---,0.00,VWS V14.01,2013-04-13 21:14:00,
2013-04-13 16:19:00,29.2,24.1,29.78,North,360,3.0,10.0,81,0.00,,---,0.00,VWS V14.01,2013-04-13 21:19:00,
2013-04-13 16:24:00,29.7,23.7,29.78,NNE,22,5.0,10.0,78,0.00,,---,0.00,VWS V14.01,2013-04-13 21:24:00,
2013-04-13 16:30:00,29.7,23.7,29.78,North,9,4.0,12.0,78,0.00,,---,0.00,VWS V14.01,2013-04-13 21:30:00,
2013-04-13 16:35:00,29.3,24.5,29.78,NNE,17,3.0,9.0,82,0.00,,---,0.00,VWS V14.01,2013-04-13 21:35:00,
2013-04-13 16:40:00,28.6,24.1,29.78,NNE,31,4.0,9.0,83,0.00,,---,0.00,VWS V14.01,2013-04-13 21:40:00,
2013-04-13 16:45:00,28.5,23.7,29.79,North,5,1.0,9.0,82,0.00,,---,0.00,VWS V14.01,2013-04-13 21:45:00,
2013-04-13 16:50:00,28.7,23.9,29.79,NNW,342,5.0,9.0,82,0.00,,---,0.00,VWS V14.01,2013-04-13 21:50:00,
2013-04-13 16:55:00,29.2,23.5,29.79,North,360,6.0,9.0,79,0.00,,---,0.00,VWS V14.01,2013-04-13 21:55:00,
2013-04-13 17:00:00,29.6,23.6,29.79,NNW,338,5.0,9.0,78,0.00,,---,0.00,VWS V14.01,2013-04-13 22:00:00,
2013-04-13 17:05:00,29.9,24.2,29.79,NNW,339,7.0,12.0,79,0.00,,---,0.00,VWS V14.01,2013-04-13 22:05:00,
2013-04-13 17:10:00,29.3,24.2,29.79,North,360,7.0,12.0,81,0.00,,---,0.00,VWS V14.01,2013-04-13 22:10:00,
2013-04-13 17:15:00,29.1,24.6,29.80,NNW,346,5.0,12.0,83,0.00,,---,0.00,VWS V14.01,2013-04-13 22:15:00,
2013-04-13 17:20:00,29.2,24.4,29.80,North,360,11.0,12.0,82,0.00,,---,0.00,VWS V14.01,2013-04-13 22:20:00,
2013-04-13 17:25:00,28.9,23.8,29.80,North,351,5.0,12.0,81,0.00,,---,0.00,VWS V14.01,2013-04-13 22:25:00,
2013-04-13 17:30:00,29.3,23.9,29.80,North,5,5.0,12.0,80,0.00,,---,0.00,VWS V14.01,2013-04-13 22:30:00,
2013-04-13 17:36:00,29.5,24.1,29.80,NNW,327,2.0,8.0,80,0.00,,---,0.00,VWS V14.01,2013-04-13 22:36:00,
2013-04-13 17:41:00,29.9,24.5,29.80,NNW,341,2.0,9.0,80,0.00,,---,0.00,VWS V14.01,2013-04-13 22:41:00,
2013-04-13 17:46:00,30.6,24.6,29.80,North,355,2.0,9.0,78,0.00,,---,0.00,VWS V14.01,2013-04-13 22:46:00,
2013-04-13 17:51:00,30.6,23.3,29.80,NNE,20,3.0,9.0,74,0.00,,---,0.00,VWS V14.01,2013-04-13 22:51:00,
2013-04-13 17:56:00,30.5,24.2,29.80,NNW,337,7.0,9.0,77,0.00,,---,0.00,VWS V14.01,2013-04-13 22:56:00,
2013-04-13 18:01:00,29.8,23.2,29.80,NNE,17,2.0,6.0,76,0.00,,---,0.00,VWS V14.01,2013-04-13 23:01:00,
2013-04-13 18:06:00,29.3,23.0,29.80,NNE,30,6.0,9.0,77,0.00,,---,0.00,VWS V14.01,2013-04-13 23:06:00,
2013-04-13 18:11:00,29.0,23.3,29.80,North,5,2.0,9.0,79,0.00,,---,0.00,VWS V14.01,2013-04-13 23:11:00,
2013-04-13 18:17:00,29.0,22.7,29.81,NNE,13,2.0,9.0,77,0.00,,---,0.00,VWS V14.01,2013-04-13 23:17:00,
2013-04-13 18:22:00,29.3,23.0,29.81,NNE,22,2.0,9.0,77,0.00,,---,0.00,VWS V14.01,2013-04-13 23:22:00,
2013-04-13 18:27:00,29.7,23.4,29.81,North,351,2.0,9.0,77,0.00,,---,0.00,VWS V14.01,2013-04-13 23:27:00,
2013-04-13 18:32:00,30.1,23.1,29.81,NNE,12,2.0,5.0,75,0.00,,---,0.00,VWS V14.01,2013-04-13 23:32:00,
2013-04-13 18:37:00,30.3,23.3,29.81,NNE,20,1.0,5.0,75,0.00,,---,0.00,VWS V14.01,2013-04-13 23:37:00,
2013-04-13 18:42:00,30.2,22.9,29.81,NNE,14,3.0,6.0,74,0.00,,---,0.00,VWS V14.01,2013-04-13 23:42:00,
2013-04-13 18:48:00,29.8,22.5,29.81,North,355,1.0,6.0,74,0.00,,---,0.00,VWS V14.01,2013-04-13 23:48:00,
2013-04-13 18:53:00,29.9,22.3,29.81,North,9,1.0,6.0,73,0.00,,---,0.00,VWS V14.01,2013-04-13 23:53:00,
2013-04-13 18:58:00,29.8,22.2,29.81,North,355,4.0,6.0,73,0.00,,---,0.00,VWS V14.01,2013-04-13 23:58:00,
2013-04-13 19:03:00,29.8,22.2,29.81,North,5,2.0,4.0,73,0.00,,---,0.00,VWS V14.01,2013-04-14 00:03:00,
2013-04-13 19:08:00,29.7,22.4,29.81,NNE,13,3.0,5.0,74,0.00,,---,0.00,VWS V14.01,2013-04-14 00:08:00,
2013-04-13 19:13:00,29.4,22.1,29.81,North,355,1.0,5.0,74,0.00,,---,0.00,VWS V14.01,2013-04-14 00:13:00,
2013-04-13 19:19:00,29.0,21.4,29.81,North,360,2.0,5.0,73,0.00,,---,0.00,VWS V14.01,2013-04-14 00:19:00,
2013-04-13 19:24:00,28.8,21.9,29.81,North,5,0.0,6.0,75,0.00,,---,0.00,VWS V14.01,2013-04-14 00:24:00,
2013-04-13 19:29:00,28.4,21.8,29.81,North,5,2.0,6.0,76,0.00,,---,0.00,VWS V14.01,2013-04-14 00:29:00,
2013-04-13 19:34:00,28.2,21.6,29.81,North,360,4.0,5.0,76,0.00,,---,0.00,VWS V14.01,2013-04-14 00:34:00,
2013-04-13 19:39:00,28.0,21.7,29.81,North,360,1.0,5.0,77,0.00,,---,0.00,VWS V14.01,2013-04-14 00:39:00,
2013-04-13 19:44:00,27.8,21.9,29.81,North,360,0.0,5.0,78,0.00,,---,0.00,VWS V14.01,2013-04-14 00:44:00,
2013-04-13 19:49:00,27.6,21.4,29.81,North,360,0.0,5.0,77,0.00,,---,0.00,VWS V14.01,2013-04-14 00:49:00,
2013-04-13 19:54:00,27.5,21.9,29.81,North,360,1.0,5.0,79,0.00,,---,0.00,VWS V14.01,2013-04-14 00:54:00,
2013-04-13 19:59:00,27.2,21.3,29.81,North,360,1.0,5.0,78,0.00,,---,0.00,VWS V14.01,2013-04-14 00:59:00,
2013-04-13 20:04:00,27.1,21.5,29.82,North,360,0.0,2.0,79,0.00,,---,0.00,VWS V14.01,2013-04-14 01:04:00,
2013-04-13 20:10:00,26.9,21.3,29.82,North,360,0.0,2.0,79,0.00,,---,0.00,VWS V14.01,2013-04-14 01:10:00,
2013-04-13 20:15:00,26.8,21.2,29.82,North,360,0.0,2.0,79,0.00,,---,0.00,VWS V14.01,2013-04-14 01:15:00,
2013-04-13 20:20:00,26.7,21.1,29.82,North,360,0.0,2.0,79,0.00,,---,0.00,VWS V14.01,2013-04-14 01:20:00,
2013-04-13 20:25:00,26.4,20.8,29.82,North,360,0.0,2.0,79,0.00,,---,0.00,VWS V14.01,2013-04-14 01:25:00,
2013-04-13 20:30:00,26.0,20.4,29.83,North,360,0.0,2.0,79,0.00,,---,0.00,VWS V14.01,2013-04-14 01:30:00,
2013-04-13 20:36:00,25.6,20.3,29.83,North,360,0.0,0.0,80,0.00,,---,0.00,VWS V14.01,2013-04-14 01:36:00,
2013-04-13 20:41:00,25.2,19.9,29.83,North,360,0.0,0.0,80,0.00,,---,0.00,VWS V14.01,2013-04-14 01:41:00,
2013-04-13 20:46:00,24.8,19.8,29.84,North,360,0.0,0.0,81,0.00,,---,0.00,VWS V14.01,2013-04-14 01:46:00,
2013-04-13 20:51:00,24.3,19.6,29.84,North,360,0.0,0.0,82,0.00,,---,0.00,VWS V14.01,2013-04-14 01:51:00,
2013-04-13 20:56:00,24.0,19.6,29.84,North,360,0.0,0.0,83,0.00,,---,0.00,VWS V14.01,2013-04-14 01:56:00,
2013-04-13 21:01:00,23.9,19.5,29.85,North,360,0.0,0.0,83,0.00,,---,0.00,VWS V14.01,2013-04-14 02:01:00,
2013-04-13 21:07:00,23.7,19.3,29.85,North,360,0.0,0.0,83,0.00,,---,0.00,VWS V14.01,2013-04-14 02:07:00,
2013-04-13 21:12:00,23.5,19.4,29.85,North,360,0.0,0.0,84,0.00,,---,0.00,VWS V14.01,2013-04-14 02:12:00,
2013-04-13 21:17:00,23.1,18.7,29.85,North,360,0.0,0.0,83,0.00,,---,0.00,VWS V14.01,2013-04-14 02:17:00,
2013-04-13 21:22:00,22.4,18.0,29.85,North,360,0.0,0.0,83,0.00,,---,0.00,VWS V14.01,2013-04-14 02:22:00,
2013-04-13 21:27:00,21.9,17.8,29.85,North,360,0.0,0.0,84,0.00,,---,0.00,VWS V14.01,2013-04-14 02:27:00,
2013-04-13 21:32:00,21.2,17.1,29.85,North,360,0.0,0.0,84,0.00,,---,0.00,VWS V14.01,2013-04-14 02:32:00,
2013-04-13 21:38:00,20.8,17.0,29.85,North,360,0.0,0.0,85,0.00,,---,0.00,VWS V14.01,2013-04-14 02:38:00,
2013-04-13 21:43:00,20.6,17.4,29.85,North,360,0.0,0.0,87,0.00,,---,0.00,VWS V14.01,2013-04-14 02:43:00,
2013-04-13 21:48:00,20.1,16.6,29.86,North,360,0.0,0.0,86,0.00,,---,0.00,VWS V14.01,2013-04-14 02:48:00,
2013-04-13 21:53:00,19.5,16.0,29.86,North,360,0.0,0.0,86,0.00,,---,0.00,VWS V14.01,2013-04-14 02:53:00,
2013-04-13 21:58:00,19.1,15.9,29.86,North,360,0.0,0.0,87,0.00,,---,0.00,VWS V14.01,2013-04-14 02:58:00,
2013-04-13 22:03:00,18.8,15.6,29.87,North,360,0.0,0.0,87,0.00,,---,0.00,VWS V14.01,2013-04-14 03:03:00,
2013-04-13 22:08:00,18.3,14.8,29.87,North,360,0.0,0.0,86,0.00,,---,0.00,VWS V14.01,2013-04-14 03:08:00,
2013-04-13 22:13:00,17.6,13.9,29.87,North,360,0.0,0.0,85,0.00,,---,0.00,VWS V14.01,2013-04-14 03:13:00,
2013-04-13 22:18:00,17.2,14.0,29.88,North,360,0.0,0.0,87,0.00,,---,0.00,VWS V14.01,2013-04-14 03:18:00,
2013-04-13 22:24:00,17.1,14.2,29.88,North,360,0.0,0.0,88,0.00,,---,0.00,VWS V14.01,2013-04-14 03:24:00,
2013-04-13 22:29:00,17.1,14.4,29.88,North,360,0.0,0.0,89,0.00,,---,0.00,VWS V14.01,2013-04-14 03:29:00,
2013-04-13 22:34:00,17.3,14.9,29.88,North,360,0.0,0.0,90,0.00,,---,0.00,VWS V14.01,2013-04-14 03:34:00,
2013-04-13 22:39:00,17.1,14.4,29.88,North,360,0.0,0.0,89,0.00,,---,0.00,VWS V14.01,2013-04-14 03:39:00,
2013-04-13 22:44:00,16.1,12.7,29.88,North,360,0.0,0.0,86,0.00,,---,0.00,VWS V14.01,2013-04-14 03:44:00,
2013-04-13 22:49:00,15.2,11.8,29.88,North,360,0.0,0.0,86,0.00,,---,0.00,VWS V14.01,2013-04-14 03:49:00,
2013-04-13 22:54:00,14.9,11.7,29.88,North,360,0.0,0.0,87,0.00,,---,0.00,VWS V14.01,2013-04-14 03:54:00,
2013-04-13 22:59:00,14.9,12.2,29.88,North,360,0.0,0.0,89,0.00,,---,0.00,VWS V14.01,2013-04-14 03:59:00,
2013-04-13 23:00:00,14.9,12.2,29.88,North,360,0.0,0.0,89,0.00,,---,0.00,VWS V14.01,2013-04-14 04:00:00,
2013-04-13 23:01:00,15.0,12.4,29.89,North,360,0.0,0.0,89,0.00,,---,0.00,VWS V14.01,2013-04-14 04:01:00,
2013-04-13 23:06:00,14.9,12.2,29.89,North,360,0.0,0.0,89,0.00,,---,0.00,VWS V14.01,2013-04-14 04:06:00,
2013-04-13 23:11:00,14.4,11.2,29.89,North,360,0.0,0.0,87,0.00,,---,0.00,VWS V14.01,2013-04-14 04:11:00,
2013-04-13 23:17:00,13.8,10.6,29.89,North,360,0.0,0.0,87,0.00,,---,0.00,VWS V14.01,2013-04-14 04:17:00,
2013-04-13 23:22:00,13.5,10.4,29.89,North,360,0.0,0.0,87,0.00,,---,0.00,VWS V14.01,2013-04-14 04:22:00,
2013-04-13 23:27:00,13.5,10.6,29.89,North,360,0.0,0.0,88,0.00,,---,0.00,VWS V14.01,2013-04-14 04:27:00,
2013-04-13 23:32:00,13.3,10.2,29.90,North,360,0.0,0.0,87,0.00,,---,0.00,VWS V14.01,2013-04-14 04:32:00,
2013-04-13 23:37:00,12.8,9.4,29.90,North,360,0.0,0.0,86,0.00,,---,0.00,VWS V14.01,2013-04-14 04:37:00,
2013-04-13 23:43:00,12.3,9.2,29.90,North,360,0.0,0.0,87,0.00,,---,0.00,VWS V14.01,2013-04-14 04:43:00,
2013-04-13 23:48:00,12.1,9.2,29.90,North,360,0.0,0.0,88,0.00,,---,0.00,VWS V14.01,2013-04-14 04:48:00,
2013-04-13 23:53:00,12.1,9.2,29.90,North,360,0.0,0.0,88,0.00,,---,0.00,VWS V14.01,2013-04-14 04:53:00,
2013-04-13 23:58:00,12.3,9.7,29.90,North,360,0.0,0.0,89,0.00,,---,0.00,VWS V14.01,2013-04-14 04:58:00,